Regional Weather Roundup
Issued by NWS Jackson, KY

Home | Current Version | Previous Version | Graphics & Text | Print | Product List | Glossary On
Versions: 1 2 3 4 5 6 7 8 9 10 11 12 13 14 15 16 17 18 19 20 21 22 23 24 25 26 27 28
000
ASUS43 KJKL 161310
RWRJKL

EAST KENTUCKY HOURLY WEATHER ROUNDUP
NATIONAL WEATHER SERVICE JACKSON KY
900 AM EDT MON OCT 16 2017

NOTE: "FAIR" INDICATES FEW OR NO CLOUDS BELOW 12,000 FEET WITH
NO SIGNIFICANT WEATHER AND/OR OBSTRUCTIONS TO VISIBILITY.

* THESE REPORTS ARE NOT UNDER NWS QUALITY CONTROL AND MAY NOT
  REPORT WEATHER SUCH AS PRECIPITATION AND FOG.

KYZ079-080-083-085-087-088-110-112-115-119-120-161400
...EASTERN KENTUCKY...

CITY           SKY/WX    TMP DP  RH WIND       PRES   REMARKS
JACKSON        CLOUDY    50  45  83 VRB3      30.26R
LONDON         CLOUDY    51  44  77 N9        30.27R
SOMERSET*      MOSUNNY   50  43  76 N8        30.30R
MONTICELLO*    PTSUNNY   50  45  83 N15       30.31R
WILLIAMSBURG*  CLOUDY    48  46  93 NW3       30.27R
MIDDLESBORO*   CLOUDY    51  44  78 N7        30.26R
HARLAN APT*    CLOUDY    50  43  76 CALM      30.25R
PIKE CO APT*   CLOUDY    49  49  99 NW6       30.24R
BIG SANDY APT* LGT RAIN  50  47  90 N3        30.24R
MOREHEAD APT*  SUNNY     48  45  87 NW6       30.30R
$$

KYZ035-036-041-042-044-050-067-078-099-161400
...CENTRAL KENTUCKY...

CITY           SKY/WX    TMP DP  RH WIND       PRES   REMARKS
MT STERLING*   SUNNY     46  45  93 N7        30.31R
FLEMING/MASON* SUNNY     47  45  92 N5        30.31R
DANVILLE*      SUNNY     46  43  87 N8        30.31R
LEXINGTON      SUNNY     49  44  83 NW6       30.30R
FRANKFORT      SUNNY     49  43  80 NW5       30.30R
LOUISVILLE     MOSUNNY   52  44  74 N10       30.32R
LEBANON*         N/A     48  45  87 N7        30.31R
GLASGOW*       PTSUNNY   49  43  79 N8        30.31R
BOWLING GREEN  MOSUNNY   51  45  79 VRB5      30.32R
$$

KYZ091>093-OHZ055-061-077-WVZ005-015-034-035-042-161400
...SOUTHERN OHIO/WEST VIRGINIA...

CITY           SKY/WX    TMP DP  RH WIND       PRES   REMARKS
COVINGTON      PTSUNNY   49  48  97 N6        30.30R
COLUMBUS       SUNNY     47  43  86 N8        30.27R
DAYTON         MOSUNNY   46  46 100 N6        30.30R
WILMINGTON     SUNNY     46  45  96 N9        30.29R
HUNTINGTON     MOSUNNY   50  43  77 NW7       30.25R
CHARLESTON     CLOUDY    50  44  80 W5        30.22R
PINEVILLE*     CLOUDY    51  44  79 MISG      30.25R
BECKLEY        CLOUDY    46  42  86 NW10      30.19R
BLUEFIELD      CLOUDY    44  39  82 VRB6      30.20R
LOGAN CO APT*  CLOUDY    50  45  81 CALM      30.22R
$$

VAZ002-007-008-TNZ017-027-036-066-071-161400
...SOUTHWEST VIRGINIA/EAST TENNESSEE...

CITY           SKY/WX    TMP DP  RH WIND       PRES   REMARKS
WISE*          CLOUDY    45  45 100 N6        30.23R
JONESVILLE*    PTSUNNY   50  45  81 CALM      30.26R
ABINGDON*      PTSUNNY   50  43  75 CALM      30.20R
BRISTOL        CLOUDY    52  45  77 N6        30.21R
MORRISTOWN*    CLOUDY    52  43  71 N7G14     30.22R
SEVIERVILLE*   CLOUDY    52  46  82 NW6       30.23R
KNOXVILLE      PTSUNNY   52  46  80 N10       30.23R
LAFOLLETTE*    CLOUDY    52  43  71 NE5       30.29R
OAK RIDGE      MOSUNNY   50  45  83 CALM      30.25R
CROSSVILLE     MOSUNNY   48  39  71 N8        30.25R
NASHVILLE      PTSUNNY   50  43  77 N10       30.31R
$$

...KEY TO REMARKS...
VSB - VISIBILITY IN MILES
WCI - WIND CHILL INDEX
HX  - HEAT INDEX

$$




USA.gov is the U.S. government's official web portal to all federal, state and local government web resources and services.